When you browse on this site, cookies collect data to enhance your experience and personalize the content and advertising you see.
Visit our Privacy Policy to learn more. By continuing to use the site, you agree to this use of cookies and data.
  • In Hungary
  • List of Countries
  • For 7 days
  • Water Temperature
  • Weather Map
  • News
  • Weather Widgets
  • user-avatar
    Login

    Hourly Weather Tamesis

    Today, 12 December, Thursday

    Time Temperature Precipitation Wind Pressure Humidity
    00:00 +15°C° 0.1 mm 0 mps 625 mmHg 97%
    01:00 +14°C° 0.1 mm 0 mps 625 mmHg 97%
    02:00 +14°C° 0 mm 0 mps 625 mmHg 97%
    03:00 +14°C° 0 mm 0 mps 625 mmHg 97%
    04:00 +14°C° 0 mm 0 mps 625 mmHg 98%
    05:00 +14°C° 0 mm 0 mps 625 mmHg 97%
    06:00 +15°C° 0 mm 0 mps 626 mmHg 96%
    07:00 +15°C° 0 mm 0 mps 626 mmHg 96%
    08:00 +17°C° 0.2 mm 0 mps 627 mmHg 91%
    09:00 +18°C° 0.2 mm 0 mps 628 mmHg 85%
    10:00 +20°C° 0.2 mm 0 mps 628 mmHg 80%
    11:00 +23°C° 0.9 mm 1 mps 628 mmHg 78%
    12:00 +23°C° 0.9 mm 1 mps 627 mmHg 77%
    13:00 +24°C° 0.9 mm 1 mps 627 mmHg 75%
    14:00 +23°C° 0.9 mm 1 mps 626 mmHg 79%
    15:00 +23°C° 0.9 mm 1 mps 626 mmHg 83%
    16:00 +22°C° 0.9 mm 1 mps 625 mmHg 87%
    17:00 +21°C° 0.6 mm 1 mps 625 mmHg 90%
    18:00 +19°C° 0.6 mm 1 mps 625 mmHg 94%
    19:00 +18°C° 0.6 mm 1 mps 625 mmHg 97%
    20:00 +18°C° 0.1 mm 1 mps 625 mmHg 97%
    21:00 +16°C° 0.1 mm 1 mps 625 mmHg 97%
    22:00 +15°C° 0.1 mm 0 mps 626 mmHg 97%
    23:00 +15°C° 0.1 mm 0 mps 626 mmHg 97%

    Tomorrow, 13 December, Friday

    Time Temperature Precipitation Wind Pressure Humidity
    00:00 +15°C° 0.1 mm 0 mps 625 mmHg 97%
    01:00 +15°C° 0.1 mm 0 mps 625 mmHg 97%
    02:00 +15°C° 0.2 mm 0 mps 625 mmHg 97%
    03:00 +15°C° 0.2 mm 0 mps 625 mmHg 98%
    04:00 +15°C° 0.2 mm 0 mps 624 mmHg 98%
    05:00 +15°C° 0.1 mm 0 mps 625 mmHg 98%
    06:00 +15°C° 0.1 mm 0 mps 625 mmHg 98%
    07:00 +15°C° 0.1 mm 0 mps 625 mmHg 97%
    08:00 +16°C° 0.2 mm 0 mps 626 mmHg 95%
    09:00 +17°C° 0.2 mm 0 mps 626 mmHg 92%
    10:00 +18°C° 0.2 mm 0 mps 627 mmHg 89%
    11:00 +18°C° 0.2 mm 0 mps 626 mmHg 86%
    12:00 +19°C° 0.2 mm 0 mps 626 mmHg 83%
    13:00 +20°C° 0.2 mm 0 mps 626 mmHg 80%
    14:00 +22°C° 0.9 mm 1 mps 625 mmHg 82%
    15:00 +22°C° 0.9 mm 1 mps 625 mmHg 84%
    16:00 +21°C° 0.9 mm 1 mps 625 mmHg 86%
    17:00 +20°C° 0.6 mm 1 mps 625 mmHg 90%
    18:00 +19°C° 0.6 mm 1 mps 625 mmHg 94%
    19:00 +18°C° 0.6 mm 1 mps 625 mmHg 98%
    20:00 +18°C° 0.1 mm 1 mps 625 mmHg 97%
    21:00 +15°C° 0.1 mm 0 mps 626 mmHg 97%
    22:00 +15°C° 0.1 mm 0 mps 626 mmHg 97%
    23:00 +15°C° 0 mm 0 mps 626 mmHg 97%

    Day after tomorrow, 14 December, Saturday

    Time Temperature Precipitation Wind Pressure Humidity
    00:00 +15°C° 0 mm 0 mps 625 mmHg 97%
    01:00 +15°C° 0 mm 0 mps 625 mmHg 97%
    02:00 +15°C° 0.1 mm 0 mps 625 mmHg 97%
    03:00 +14°C° 0.1 mm 0 mps 625 mmHg 97%
    04:00 +14°C° 0.1 mm 0 mps 625 mmHg 97%
    05:00 +15°C° 0 mm 0 mps 625 mmHg 96%
    06:00 +15°C° 0 mm 0 mps 626 mmHg 96%
    07:00 +15°C° 0 mm 0 mps 626 mmHg 96%
    08:00 +17°C° 0.2 mm 0 mps 627 mmHg 90%
    09:00 +18°C° 0.2 mm 0 mps 628 mmHg 84%
    10:00 +20°C° 0.2 mm 0 mps 629 mmHg 78%
    11:00 +20°C° 1.1 mm 0 mps 628 mmHg 80%
    12:00 +21°C° 1.1 mm 0 mps 627 mmHg 81%
    13:00 +21°C° 1.1 mm 0 mps 627 mmHg 83%
    14:00 +20°C° 1.3 mm 0 mps 626 mmHg 86%
    15:00 +20°C° 1.3 mm 0 mps 626 mmHg 89%
    16:00 +19°C° 1.3 mm 0 mps 625 mmHg 92%
    17:00 +18°C° 0.6 mm 0 mps 625 mmHg 94%
    18:00 +19°C° 0.6 mm 1 mps 625 mmHg 96%
    19:00 +18°C° 0.6 mm 1 mps 625 mmHg 97%
    20:00 +16°C° 0.3 mm 0 mps 626 mmHg 97%
    21:00 +15°C° 0.3 mm 0 mps 626 mmHg 97%
    22:00 +15°C° 0.3 mm 0 mps 627 mmHg 97%
    23:00 +15°C° 1 mm 0 mps 626 mmHg 97%

    15 December, Sunday

    Time Temperature Precipitation Wind Pressure Humidity
    00:00 +15°C° 1 mm 0 mps 626 mmHg 97%
    01:00 +15°C° 1 mm 0 mps 626 mmHg 98%
    02:00 +15°C° 1.1 mm 0 mps 626 mmHg 98%
    03:00 +15°C° 1.1 mm 0 mps 626 mmHg 98%
    04:00 +15°C° 1.1 mm 0 mps 625 mmHg 99%
    05:00 +15°C° 0.1 mm 0 mps 626 mmHg 98%
    06:00 +15°C° 0.1 mm 0 mps 626 mmHg 98%
    07:00 +15°C° 0.1 mm 0 mps 627 mmHg 97%
    08:00 +17°C° 0.1 mm 0 mps 628 mmHg 89%
    09:00 +19°C° 0.1 mm 0 mps 628 mmHg 81%
    10:00 +21°C° 0.1 mm 0 mps 629 mmHg 73%
    11:00 +21°C° 0.7 mm 0 mps 629 mmHg 73%
    12:00 +22°C° 0.7 mm 0 mps 628 mmHg 73%
    13:00 +23°C° 0.7 mm 0 mps 628 mmHg 73%
    14:00 +22°C° 1.1 mm 0 mps 627 mmHg 76%
    15:00 +21°C° 1.1 mm 0 mps 626 mmHg 80%
    16:00 +21°C° 1.1 mm 0 mps 626 mmHg 83%
    17:00 +19°C° 1 mm 0 mps 626 mmHg 88%
    18:00 +20°C° 1 mm 1 mps 626 mmHg 92%
    19:00 +18°C° 1 mm 1 mps 625 mmHg 97%
    20:00 +18°C° 0.6 mm 1 mps 626 mmHg 97%
    21:00 +16°C° 0.6 mm 0 mps 626 mmHg 97%
    22:00 +15°C° 0.6 mm 0 mps 627 mmHg 97%
    23:00 +15°C° 0.3 mm 0 mps 626 mmHg 97%

    16 December, Monday

    Time Temperature Precipitation Wind Pressure Humidity
    00:00 +15°C° 0.3 mm 0 mps 626 mmHg 98%
    01:00 +15°C° 0.3 mm 0 mps 625 mmHg 98%
    02:00 +15°C° 0.1 mm 0 mps 625 mmHg 98%
    03:00 +15°C° 0.1 mm 0 mps 625 mmHg 98%
    04:00 +15°C° 0.1 mm 0 mps 625 mmHg 98%
    05:00 +15°C° 0 mm 0 mps 625 mmHg 98%
    06:00 +15°C° 0 mm 0 mps 626 mmHg 98%
    07:00 +15°C° 0 mm 0 mps 626 mmHg 97%
    08:00 +17°C° 0 mm 0 mps 627 mmHg 90%
    09:00 +19°C° 0 mm 0 mps 627 mmHg 84%
    10:00 +22°C° 0 mm 1 mps 628 mmHg 77%
    11:00 +24°C° 0.2 mm 1 mps 628 mmHg 70%
    12:00 +25°C° 0.2 mm 1 mps 628 mmHg 63%
    13:00 +25°C° 0.2 mm 0 mps 628 mmHg 56%
    14:00 +24°C° 0.5 mm 0 mps 627 mmHg 61%
    15:00 +25°C° 0.5 mm 1 mps 626 mmHg 65%
    16:00 +24°C° 0.5 mm 1 mps 625 mmHg 70%
    17:00 +22°C° 0.4 mm 1 mps 625 mmHg 78%
    18:00 +20°C° 0.4 mm 1 mps 625 mmHg 87%
    19:00 +18°C° 0.4 mm 1 mps 624 mmHg 96%
    20:00 +18°C° 0.1 mm 1 mps 625 mmHg 96%
    21:00 +18°C° 0.1 mm 1 mps 625 mmHg 97%
    22:00 +15°C° 0.1 mm 0 mps 626 mmHg 97%
    23:00 +15°C° 0.1 mm 0 mps 625 mmHg 97%

    17 December, Tuesday

    Time Temperature Precipitation Wind Pressure Humidity
    00:00 +15°C° 0.1 mm 0 mps 625 mmHg 97%
    01:00 +15°C° 0.1 mm 0 mps 625 mmHg 97%
    02:00 +15°C° 0.1 mm 0 mps 624 mmHg 97%
    03:00 +15°C° 0.1 mm 0 mps 624 mmHg 98%
    04:00 +15°C° 0.1 mm 0 mps 624 mmHg 98%
    05:00 +15°C° 0.1 mm 0 mps 624 mmHg 97%
    06:00 +15°C° 0.1 mm 0 mps 625 mmHg 97%
    07:00 +16°C° 0.1 mm 0 mps 625 mmHg 97%
    08:00 +17°C° 0.2 mm 0 mps 626 mmHg 93%
    09:00 +18°C° 0.2 mm 0 mps 626 mmHg 89%
    10:00 +19°C° 0.2 mm 0 mps 627 mmHg 85%
    11:00 +21°C° 0.8 mm 0 mps 626 mmHg 79%
    12:00 +22°C° 0.8 mm 0 mps 626 mmHg 73%
    13:00 +24°C° 0.8 mm 0 mps 626 mmHg 67%
    14:00 +23°C° 1.2 mm 0 mps 625 mmHg 73%
    15:00 +24°C° 1.2 mm 1 mps 625 mmHg 80%
    16:00 +23°C° 1.2 mm 1 mps 624 mmHg 86%
    17:00 +21°C° 1.1 mm 1 mps 624 mmHg 90%
    18:00 +20°C° 1.1 mm 1 mps 624 mmHg 93%
    19:00 +18°C° 1.1 mm 1 mps 624 mmHg 97%
    20:00 +18°C° 0.6 mm 1 mps 624 mmHg 97%
    21:00 +18°C° 0.6 mm 1 mps 625 mmHg 97%
    22:00 +18°C° 0.6 mm 1 mps 625 mmHg 97%
    23:00 +16°C° 0.6 mm 0 mps 625 mmHg 97%
    Show more